Flag for Canada Weather past 2 weeks in Stephenville, Newfoundland and Labrador, Canada

Now
61 °F

Passing clouds.


Feels Like: 61 °F
Forecast: 63 / 69 °F
Wind: 5 mph from North

Location: Stephenville

Current Time: Aug 21, 2014 at 6:33:43 AM

Latest Report: Aug 21, 2014 at 5:30 AM


Visibility: 15 mi

Pressure: 29.93 "Hg

Humidity: 83%

Dew point: 55 °F

Location of StephenvilleLocation

Historic Weather in Stephenville — Graph

°F

Stephenville temperature yesterday

Maximum temperature yesterday: 70 °F (at 2:30 PM)
Minimum temperature yesterday: 61 °F (at 12:30 AM)
Average temperature yesterday: 64 °F

Past Weeks' High & Low Weather Summary

 TemperatureHumidityPressure
High79 °F (Aug 13, 4:30 PM)88% (Aug 7, 2:30 AM)30.22 "Hg (Aug 7, 2:30 AM)
Low55 °F (Aug 12, 6:30 AM)45% (Aug 15, 4:30 PM)29.52 "Hg (Aug 19, 10:30 AM)
Average66 °F73%29.92 "Hg
* Reported Aug 6 4:30 AM — Aug 21 5:19 AM, Stephenville, Weather by CustomWeather, © 2014

Note: Actual official high and low records may vary slightly from our data, if they occured in-between our weather recording intervals... More about our weather records

Advertising

Stephenville weather history for previous 24 hours

 ConditionsComfort  
Time TempWeatherWind HumidityBarometerVisibility
5:19 AM
Aug 21
N/APassing clouds.7 mphN/AN/A15 mi
4:30 AM63 °FClear.No wind77%29.92 "Hg15 mi
3:30 AM63 °FClear.10 mph77%29.91 "Hg15 mi
3:16 AMN/AClear.12 mphN/AN/A15 mi
2:30 AM63 °FPassing clouds.8 mph88%29.89 "Hg15 mi
1:30 AM64 °FPassing clouds.7 mph83%29.89 "Hg15 mi
12:30 AM64 °FPassing clouds.6 mph83%29.89 "Hg15 mi
11:30 PM
Aug 20
64 °FPassing clouds.10 mph83%29.88 "Hg15 mi
10:30 PM64 °FPassing clouds.9 mph83%29.88 "Hg15 mi
9:30 PM64 °FPassing clouds.5 mph78%29.87 "Hg15 mi
8:30 PM64 °FPartly sunny.9 mph78%29.86 "Hg15 mi
7:30 PM66 °FPartly sunny.12 mph78%29.84 "Hg15 mi
6:30 PM66 °FBroken clouds.12 mph78%29.82 "Hg15 mi
5:30 PM68 °FBroken clouds.17 mph78%29.80 "Hg15 mi
4:30 PM70 °FPartly sunny.17 mph69%29.78 "Hg15 mi
3:30 PM70 °FPartly sunny.17 mph69%29.77 "Hg15 mi
2:30 PM70 °FPartly sunny.14 mph69%29.76 "Hg15 mi
1:30 PM68 °FPartly sunny.12 mph78%29.75 "Hg15 mi
12:30 PM64 °FSprinkles. Partly sunny.5 mph83%29.75 "Hg12 mi
12:15 PMN/ARain showers.9 mphN/AN/A15 mi
11:30 AM66 °FPartly sunny.10 mph78%29.74 "Hg15 mi
10:30 AM66 °FPartly sunny.8 mph78%29.72 "Hg15 mi
9:30 AM63 °FPartly sunny.5 mph88%29.71 "Hg15 mi
8:30 AM61 °FLight rain. Overcast.3 mph88%29.70 "Hg12 mi
7:30 AM61 °FLight rain. Overcast.7 mph88%29.68 "Hg10 mi
6:30 AM61 °FSprinkles. Fog.7 mph88%29.67 "Hg3 mi
Weather by CustomWeather, © 2014

See weather overviewHow to use our weather pages